User: anonymous
Location: West Cummington
(42.4920°N, 72.9680°W)
Time: 15:03:59
(UTC-04:00)
Language:

Cosmos 841 Rocket - Orbit

View from above orbital plane
View from above orbital plane
View from above satellite
View from above satellite

Ground track
Ground track

The orbit data is extracted from the following two-line orbital elements,

1 09023U 76069B   14106.42570652  .00000314  00000-0  10983-3 0  3654
2 09023 074.0446 072.9153 0017367 168.4608 191.6948 14.39121466978240
Epoch (UTC): 16 April 2014 10:13:01
Eccentricity: 0.0017367
inclination: 74.0446°
perigee height: 749 km
apogee height: 774 km
right ascension of ascending node: 72.9153°
argument of perigee: 168.4608°
revolutions per day: 14.39121466
mean anomaly at epoch: 191.6948°
orbit number at epoch: 97824

The dashed part of the orbit path shows where the satellite is in the earth's shadow,  

DLR